Location: Stigler
(35.2540°N, 95.1230°W)
Time: 03:44:11
(UTC-05:00)

Daily predictions for brighter satellites

Satellite Brightness Start Highest point End
(mag) Time Altitude Azimuth Time Altitude Azimuth Time Altitude Azimuth
Cosmos 1626 4.2 00:09:56 27° NNW 00:09:56 27° NNW 00:11:58 10° N
Cosmos 2315 Rocket 4.2 00:09:17 56° WSW 00:10:15 63° W 00:16:32 10° N
CZ-2C R/B 3.3 00:11:35 10° N 00:16:45 46° WNW 00:17:21 44° W
SL-08 ROCKET BODY 4.4 00:12:43 10° N 00:18:55 76° W 00:19:03 75° WSW
Mayak 0.7 00:15:15 10° NNE 00:16:59 23° NE 00:16:59 23° NE
SL-19 R/B 4.5 00:16:33 10° NNE 00:21:03 58° NE 00:21:03 58° NE
Cosmos 1455 4.3 00:19:25 10° N 00:21:04 24° N 00:21:04 24° N
Meteor 2-19 Rocket 4.4 00:17:32 10° N 00:23:41 80° W 00:23:41 80° W
Meteor 1-11 4.4 00:27:59 67° WNW 00:27:59 67° WNW 00:33:35 10° N
Cosmos 2184 Rocket 4.1 00:26:43 10° N 00:32:49 67° ENE 00:32:49 67° ENE
CENTAUR R/B 3.4 00:31:06 10° NNW 00:39:10 63° NE 00:41:22 49° ESE
ADEOS Rocket 3.1 00:34:47 10° NNE 00:40:28 72° ENE 00:40:28 72° ENE
Terra 4.3 00:49:22 11° W 00:49:22 11° W 00:50:31 10° WNW
USA 234 3.4 00:43:11 10° NE 00:48:43 58° E 00:48:43 58° E
Cosmos 2278 Rocket 4.4 00:47:07 12° W 00:50:24 19° WNW 00:54:22 10° NNW
Nadezhda 1 Rocket 4.2 01:15:06 62° WNW 01:15:06 62° WNW 01:21:19 10° N
ALOS 2 4.4 01:18:42 28° NW 01:18:42 28° NW 01:20:58 10° NNW
ATLAS 3B R/B 4.4 01:14:32 10° WNW 01:17:31 17° W 01:17:31 17° W
Cosmos 2369 Rocket 3.0 01:22:26 44° ENE 01:22:26 44° ENE 01:26:34 10° NNE
Meteor 2-10 Rocket 4.2 01:18:10 10° N 01:22:01 51° NNW 01:22:01 51° NNW
ATLAS 5 CENTAUR R/B 4.5 01:37:04 10° WNW 01:38:42 12° NW 01:40:22 10° NNW
Cosmos 2082 Rocket 3.8 01:36:28 10° NW 01:39:31 24° WNW 01:39:31 24° WNW
MOS 1 Rocket 4.4 01:38:42 10° NNE 01:42:00 40° NE 01:42:00 40° NE
H-2A R/B 4.2 01:47:40 19° NW 01:47:40 19° NW 01:49:03 10° NNW
BREEZE-M DEB (TANK) 4.4 01:25:46 10° SW 01:46:15 71° SE 01:50:27 10° ENE
Mayak 1.5 01:52:36 10° NW 01:53:36 12° NW 01:53:36 12° NW
Lacrosse 4 Rocket 4.1 01:57:34 14° ENE 01:57:34 14° ENE 01:58:36 10° ENE
Cosmos 2263 4.4 02:00:39 64° NNE 02:00:39 64° NNE 02:05:22 10° NNE
Cosmos 1943 Rocket 2.4 02:08:35 64° NNW 02:08:35 64° NNW 02:13:25 10° NNE
ATLAS 5 CENTAUR R/B 4.4 02:17:54 24° ESE 02:18:49 25° E 02:27:28 10° NE
CZ-2D R/B 3.9 02:16:27 10° NE 02:20:22 20° E 02:20:41 20° E
CZ-2C R/B 3.6 02:20:36 59° E 02:20:36 59° E 02:24:14 10° NNE
Meteor 1-26 Rocket 4.2 02:23:04 10° N 02:28:30 78° NE 02:28:30 78° NE
CENTAUR R/B 4.2 02:22:42 10° NW 02:28:31 29° W 02:28:31 29° W
USA 234 4.5 02:26:34 10° NNE 02:32:22 35° NW 02:36:01 20° W
Cosmos 1570 Rocket 4.1 02:31:56 10° NNW 02:36:40 71° N 02:36:40 71° N
Resurs 1-4 Rocket 2.9 02:44:14 10° NNE 02:49:13 39° E 02:49:41 39° ESE
Cosmos 1862 Rocket 4.2 02:45:34 10° N 02:49:05 54° N 02:49:05 54° N
Cosmos 2218 Rocket 4.4 02:44:21 10° NNW 02:49:58 46° W 02:49:58 46° W
Meteor 2-3 Rocket 4.3 03:00:10 43° WNW 03:00:11 43° WNW 03:05:40 10° N
H-2A R/B 3.5 03:01:20 10° NNE 03:04:28 38° ENE 03:04:28 38° ENE
Cosmos 2369 Rocket 4.0 03:04:12 18° WNW 03:05:24 19° WNW 03:09:20 10° NNW
CBERS-1 3.9 03:01:47 10° NNE 03:06:56 75° ESE 03:07:12 73° SE
ARIANE 5 R/B 3.7 03:03:05 10° NE 03:07:30 31° E 03:08:34 29° ESE
Cosmos 1862 4.2 03:08:16 45° ENE 03:08:16 45° ENE 03:11:31 10° NNE
Cosmos 1763 Rocket 3.5 03:03:14 10° NNW 03:08:18 70° ENE 03:08:56 62° ESE
CZ-4B R/B 4.0 03:15:14 14° NNW 03:15:14 14° NNW 03:15:43 10° NNW
SL-16 R/B 2.5 03:17:49 39° SSE 03:20:18 78° ENE 03:26:28 10° N
Cosmos 1825 4.3 03:25:19 18° NW 03:25:19 18° NW 03:26:57 10° NNW
AQUA 3.6 03:20:11 10° N 03:24:57 80° WNW 03:25:10 77° WSW
Cosmos 1814 Rocket 3.9 03:21:57 10° NNW 03:27:16 85° WSW 03:28:09 63° S
Cosmos 1535 Rocket 4.4 03:21:32 10° N 03:27:40 83° E 03:29:57 41° SSE
Cosmos 1606 4.5 03:24:14 10° NNW 03:26:03 23° NW 03:26:03 23° NW
Nadezhda 3 Rocket 4.4 03:26:51 43° WSW 03:27:54 47° W 03:34:00 10° N
ATLAS 2A CENTAUR R/B 4.2 03:27:40 34° SSW 03:30:15 37° S 03:37:19 10° ESE
UNK 3.6 03:30:15 73° S 03:30:42 88° W 03:35:23 10° NNW
Cosmos 1867 3.9 03:29:59 46° W 03:30:55 51° WNW 03:36:15 10° NNE
Lacrosse 4 Rocket 2.5 03:33:53 34° WNW 03:33:56 34° WNW 03:38:00 10° N
COSMOS 2455 3.4 03:28:37 10° NNW 03:34:33 58° ENE 03:40:26 10° SE
Cosmos 1184 Rocket 4.1 03:32:24 10° N 03:35:28 35° E 03:35:28 35° E
Meteor 2-17 Rocket 4.3 03:31:10 10° N 03:37:19 86° W 03:39:40 41° S
SL-24 DEB 4.1 03:37:53 67° WSW 03:38:06 68° W 03:42:43 10° N
Cosmos 841 Rocket 3.3 03:33:31 10° NNW 03:38:45 88° WSW 03:40:19 46° SSE
IRS-1C 4.1 03:35:39 10° N 03:40:58 72° WNW 03:42:10 53° SW
Spot 4 Rocket 4.0 03:39:56 10° NNE 03:45:05 79° ESE 03:46:39 46° S
Cosmos 44 Rocket 3.9 03:44:20 39° SSE 03:45:28 47° ESE 03:50:13 10° NE
Cosmos 1934 Rocket 3.9 03:40:52 10° N 03:47:12 78° W 03:49:55 36° S
Cosmos 1818 3.6 03:41:52 10° NW 03:47:13 56° WSW 03:48:08 50° SSW
ATLAS CENTAUR R/B 2.0 03:50:03 38° SE 03:50:22 39° ESE 03:54:00 10° NE
NPP 4.4 03:47:37 10° N 03:52:29 36° WNW 03:53:40 32° W
Delta 2 Rocket 3.4 03:51:41 50° W 03:52:46 84° N 03:57:37 10° E
Cosmos 44 3.1 03:53:58 56° SW 03:54:56 79° WNW 03:59:50 10° NNE
IRS-1D 3.6 03:51:03 10° N 03:56:04 57° WNW 03:57:19 44° WSW
Cosmos 1437 Rocket 3.1 03:56:50 49° W 03:56:59 49° W 04:00:59 10° N
ADEOS II 3.2 03:54:08 10° NNE 03:59:02 39° E 04:02:42 17° SSE
CZ-2D R/B 2.7 03:55:32 10° N 04:00:31 42° WNW 04:02:01 34° WSW
CZ-2D R/B 3.9 03:56:36 10° NNE 04:00:46 58° E 04:02:14 36° SSE
Cosmos 1697 Rocket 4.4 03:59:48 11° SSE 04:04:10 26° ESE 04:08:46 10° NE
Meteor 1-4 Rocket 2.6 04:04:17 57° W 04:04:22 57° W 04:08:00 10° N
Cosmos 1812 3.8 04:00:58 10° N 04:04:39 42° E 04:07:23 16° SSE
Cosmos 1869 Rocket 4.2 04:05:26 35° W 04:05:49 36° W 04:09:51 10° NNW
Cosmos 1354 Rocket 4.0 04:04:33 40° SW 04:06:22 71° WNW 04:11:36 10° NNE
Cosmos 2221 Rocket 3.5 04:02:13 10° NNW 04:06:39 72° W 04:08:05 41° SSW
USA 229 DEB 4.1 04:05:34 10° NNW 04:12:50 75° ENE 04:20:15 10° SE
USA 229 4.1 04:05:40 10° NNW 04:12:56 74° ENE 04:20:21 10° SE
GPS 2-04 Rocket1 2.8 04:15:38 46° SW 04:16:34 61° SSE 04:20:34 10° E
CBERS 1 LM4 rocket 4.4 04:14:16 10° N 04:19:14 72° WNW 04:21:33 31° SSW
Cosmos 2369 4.1 04:16:58 22° S 04:20:37 60° ESE 04:26:10 10° NNE
Cosmos 1727 Rocket 4.0 04:18:04 27° SSW 04:21:37 68° W 04:27:52 10° N
Helios 1A Rocket 2.8 04:17:55 10° NNE 04:21:58 90° SE 04:23:46 32° SSW
Cosmos 2219 3.1 04:16:30 10° NNW 04:22:09 75° WSW 04:27:44 10° SSE
SL-08 R/B 4.5 04:24:33 24° W 04:24:42 24° W 04:28:30 10° NW
Cosmos 389 Rocket 2.4 04:25:05 39° SSW 04:26:18 77° W 04:29:56 10° N
Genesis I 3.7 04:23:11 10° NNW 04:27:15 63° ENE 04:31:14 10° SE
Meteor 1-27 Rocket 4.3 04:22:02 10° NNW 04:27:28 41° W 04:30:21 25° SW
SAR-Lupe-2 3.4 04:26:06 25° S 04:28:05 83° WSW 04:31:40 10° NNW
Resurs 1-4 Rocket 3.6 04:24:41 10° NNW 04:28:45 23° WNW 04:30:46 18° W
Cosmos 968 Rocket 3.5 04:27:33 26° SSW 04:30:33 78° WNW 04:35:51 10° NNE
Cosmos 1980 Rocket 4.1 04:26:11 10° SSE 04:30:34 24° E 04:34:58 10° NE
Shenzhou-11 Module 3.9 04:33:16 18° SSE 04:33:42 18° SE 04:35:51 10° E
Okean 1-7 4.4 04:33:24 10° NW 04:36:45 22° W 04:37:21 21° W
CZ-3 R/B 4.4 04:22:49 17° SSW 04:38:06 29° S 04:46:37 10° ESE
Okean 3 3.8 04:37:26 10° N 04:41:37 67° E 04:45:48 10° SSE
ARIANE 5 R/B 3.8 04:42:27 10° NNW 04:46:26 25° WNW 04:48:54 17° WSW
ASTEX 1 3.4 04:42:52 10° S 04:47:52 85° W 04:52:53 10° N
Cosmos 2278 3.7 04:43:41 17° SSW 04:48:03 89° WNW 04:53:45 10° NNE
Cosmos 2297 Rocket 2.5 04:43:14 10° NNW 04:48:52 69° ENE 04:54:28 10° SSE
Okean 1 4.1 04:46:26 10° N 04:50:19 51° E 04:54:10 10° SSE
Cosmos 1733 Rocket 3.7 04:51:18 21° SW 04:53:42 38° W 04:57:44 10° N
Cosmos 1271 Rocket 3.3 04:49:49 10° S 04:53:43 57° E 04:57:35 10° NNE
Cosmos 1633 3.7 04:54:29 20° WSW 04:55:53 26° WNW 04:58:58 10° NNW
Cosmos 2227 Rocket 2.2 04:51:35 10° NNW 04:57:18 90° WSW 05:02:57 10° SSE
PSLV R/B 3.3 04:55:40 10° WNW 04:58:36 63° NNE 05:01:32 10° ESE
BREEZE-M DEB (TANK) 3.2 04:56:06 10° WNW 04:59:14 65° SW 05:08:39 10° SE
GEOS 3 Rocket 4.4 04:56:39 10° NE 05:01:43 46° ESE 05:06:39 10° SSW
Cosmos 1802 Rocket 4.0 04:56:00 10° N 05:02:16 88° E 05:08:25 10° S
SL-16 R/B 4.2 05:02:54 12° WSW 05:04:26 13° W 05:07:09 10° WNW
UNKNOWN OBJECT B 4.4 05:02:34 10° NNW 05:05:39 22° WNW 05:07:57 14° WSW
Cosmos 2061 Rocket 4.0 05:01:29 10° N 05:07:44 85° W 05:14:01 10° S
Lacrosse 5 3.9 05:03:21 10° NNW 05:07:53 31° NE 05:12:23 10° ESE
Cosmos 1674 Rocket 3.7 05:04:10 10° NNW 05:08:22 52° W 05:12:33 10° S
Cosmos 1908 Rocket 3.6 05:06:07 10° SSW 05:10:32 66° W 05:14:58 10° N
COSMOS 2455 4.1 05:15:55 10° WNW 05:19:56 19° WSW 05:23:55 10° SW
Cosmos 1656 4.4 05:15:29 12° SW 05:20:26 40° WNW 05:25:45 10° N
SL-8 R/B 3.7 05:17:03 10° WNW 05:21:49 64° SW 05:26:33 10° SE
Lacrosse 5 rocket 3.1 05:20:43 10° S 05:24:29 29° ESE 05:28:24 10° ENE
Cosmos 1725 Rocket 4.1 05:21:31 10° N 05:27:52 86° E 05:34:09 10° S
Cosmos 1459 Rocket 4.4 05:22:02 10° NNW 05:28:04 47° W 05:34:05 10° SSW
Iridium 96 3.9 05:25:00 10° N 05:28:05 77° W 05:30:48 10° S
Cosmos 1975 Rocket 3.6 05:23:38 10° N 05:28:06 64° E 05:32:31 10° SSE
Cosmos 2100 Rocket 4.4 05:22:56 10° NNW 05:28:40 41° W 05:34:25 10° SSW
NOSS 3-1 (C) 4.2 05:21:06 10° NW 05:28:52 62° WSW 05:37:18 10° SSE
ATLAS CENTAUR R/B 3.4 05:27:18 10° W 05:29:32 15° NW 05:31:50 10° NNW
Cosmos 2082 3.7 05:26:35 10° NNW 05:32:08 61° WSW 05:37:39 10° S
Milstar 3 Cent rocket 3.7 05:20:46 10° W 05:34:56 58° S 05:41:42 10° ESE
Delta 2 Rocket 3.7 05:30:47 10° W 05:35:22 71° SSW 05:40:34 10° ESE
Cosmos 2360 4.3 05:31:38 10° SSW 05:37:18 84° WNW 05:43:02 10° NNE
Aureole 3 4.3 05:32:04 10° SSW 05:38:15 58° W 05:43:09 10° N
ADEOS II 3.5 05:34:27 10° NNW 05:38:27 22° WNW 05:42:27 10° WSW
Cosmos 2322 Rocket 4.1 05:35:21 10° SSE 05:40:04 28° ESE 05:44:48 10° NE
ATLAS 2A CENTAUR R/B 3.1 05:37:03 10° WSW 05:45:52 39° S 05:50:11 10° ESE
